Tracking 26922 objects as of 31-Jan-2023
HD Live streaming from Space Station
objects crossing your sky now

CZ-6A DEB

Track CZ-6A DEB now!
10-day predictions


NORAD ID: 54350
Int'l Code: 2022-151CV
Perigee: 739.2 km
Apogee: 838.8 km
Inclination: 98.8 °
Period: 100.5 minutes
Semi major axis: 7160 km
RCS: Unknown
Launch date: November 11, 2022
Source: People's Republic of China (PRC)
Launch site: Taiyaun Space Center, China (TSC)

Note: This is SATELLITE DEBRIS
Your satellite tracking list
Your tracking list is empty




NASA's NSSDC Master Catalog

Two Line Element Set (TLE):
1 54350U 22151CV  23031.51497136  .00000555  00000-0  21416-3 0  9995
2 54350  98.8158  42.9830 0069588   6.2689 353.9349 14.32952836 10977
Source of the keplerian elements: AFSPC